Location: Erlenbrunn
(49.1717°N, 7.6142°E)
Time: 12:18:09
(UTC+00:00)

Cosmos 405 - Pass Details

Date: 25 November 2020
Orbit: 449 x 461 km, 81.3° (Epoch: 26 January)

Event Time Altitude Azimuth Distance (km) Brightness Sun altitude
Rises 16:07:47 0° 183° (S) 2,466 7.1 -5.1°
Reaches altitude 10° 16:09:52 10° 180° (S) 1,595 6.1 -5.4°
Maximum altitude 16:13:19 64° 99° (E) 509 3.0 -5.9°
Drops below altitude 10° 16:16:47 10° 17° (NNE) 1,602 5.3 -6.4°
Sets 16:18:52 0° 15° (NNE) 2,478 6.3 -6.8°
